Weather History for Bartow, FL

Change the Weather History Date:

Wednesday, November 14, 2012

  Actual Average Record
Temperature  
Mean Temperature 68 °F -  
Max Temperature 77 °F 78 °F 89 °F (1938)
Min Temperature 59 °F 54 °F 36 °F (1932)
Cooling Degree Days 3    
Growing Degree Days 18 (Base 50)    
Moisture  
Dew Point 63 °F    
Average Humidity 90    
Maximum Humidity 100    
Minimum Humidity 57    
Precipitation  
Precipitation 0.00 in - - ()
Sea Level Pressure  
Sea Level Pressure 30.14 in    
Wind  
Wind Speed 3 mph (NNE)    
Max Wind Speed 10 mph    
Max Gust Speed -    
Visibility 8 miles    
Events Fog    
Averages and records for this station are not official NWS values.
T = Trace of Precipitation, MM = Missing Value Source: NWS Daily Summary

Daily Weather History Graph

Daily Weather History Graph

Search for Another Location

Airport:

Trip Planner

Search our weather history database for the weather conditions in past years. The results will help you decide how hot, cold, wet, or windy it might be!

Date:

Astronomy

Nov. 14, 2012 Rise Set
Actual Time 6:48 AM EST 5:34 PM EST
Civil Twilight 6:23 AM EST 5:59 PM EST
Nautical Twilight 5:55 AM EST 6:27 PM EST
Astronomical Twilight 5:27 AM EST 6:55 PM EST
Moon 7:31 AM EST (11/14) 6:27 PM EST (11/14)
Length of Visible Light 11h 36m
Length of Day
10h 46m
New Moon, 1% of the Moon is Illuminated
Nov 14
New Moon
Nov 20
First Quarter
Nov 28
Full
Dec 6
Last Quarter
Dec 13
New

Hourly Weather History & Observations

Time (EST) Temp. Dew Point Humidity Pressure Visibility Wind Dir Wind Speed Gust Speed Precip Events Conditions
12:15 AM 66.2 °F 66.2 °F 100% 30.15 in 8.0 mi Calm Calm - N/A   Clear
12:35 AM 64.4 °F 64.4 °F 100% 30.14 in 8.0 mi Calm Calm - N/A   Clear
12:55 AM 62.6 °F 62.6 °F 100% 30.14 in 5.0 mi Calm Calm - N/A   Clear
1:15 AM 62.6 °F 62.6 °F 100% 30.14 in 7.0 mi Calm Calm - N/A   Clear
1:55 AM 60.8 °F 60.8 °F 100% 30.13 in 1.5 mi Calm Calm - N/A   Clear
2:15 AM 60.8 °F 60.8 °F 100% 30.12 in 0.5 mi Calm Calm - N/A Fog Fog
2:35 AM 60.8 °F 60.8 °F 100% 30.12 in 7.0 mi Calm Calm - N/A   Clear
2:55 AM 60.8 °F 60.8 °F 100% 30.11 in 7.0 mi Calm Calm - N/A   Clear
3:15 AM 59.0 °F 59.0 °F 100% 30.12 in 0.5 mi Calm Calm - N/A Fog Fog
3:35 AM 60.8 °F 60.8 °F 100% 30.12 in 8.0 mi Calm Calm - N/A   Clear
3:55 AM 60.8 °F 60.8 °F 100% 30.12 in 7.0 mi Calm Calm - N/A   Clear
4:15 AM 60.8 °F 60.8 °F 100% 30.13 in 7.0 mi Calm Calm - N/A   Clear
4:35 AM 60.8 °F 60.8 °F 100% 30.13 in 9.0 mi NNE 3.5 mph - N/A   Clear
4:55 AM 62.6 °F 62.6 °F 100% 30.13 in 8.0 mi North 5.8 mph - N/A   Clear
5:15 AM 62.6 °F 62.6 °F 100% 30.13 in 8.0 mi North 5.8 mph - N/A   Clear
5:35 AM 62.6 °F 62.6 °F 100% 30.14 in 8.0 mi North 5.8 mph - N/A   Clear
5:55 AM 62.6 °F 62.6 °F 100% 30.14 in 3.0 mi North 6.9 mph - N/A   Mostly Cloudy
6:15 AM 62.6 °F 62.6 °F 100% 30.15 in - North 8.1 mph - N/A   Overcast
2:35 PM 75.2 °F 62.6 °F 65% 30.12 in 7.0 mi North 8.1 mph - N/A   Clear
2:55 PM 75.2 °F 62.6 °F 65% 30.12 in 7.0 mi North 4.6 mph - N/A   Clear
3:15 PM 75.2 °F 62.6 °F 65% 30.12 in 8.0 mi North 9.2 mph - N/A   Partly Cloudy
3:55 PM 77.0 °F 60.8 °F 57% 30.11 in 8.0 mi NNE 6.9 mph - N/A   Clear
4:15 PM 75.2 °F 62.6 °F 65% 30.11 in 8.0 mi NE 9.2 mph - N/A   Partly Cloudy
4:35 PM 73.4 °F 62.6 °F 69% 30.11 in 9.0 mi NE 9.2 mph - N/A   Scattered Clouds
4:55 PM 71.6 °F 62.6 °F 73% 30.12 in 8.0 mi NE 6.9 mph - N/A   Clear
5:15 PM 71.6 °F 62.6 °F 73% 30.12 in 9.0 mi NNE 8.1 mph - N/A   Clear
5:35 PM 69.8 °F 62.6 °F 78% 30.12 in 9.0 mi NE 5.8 mph - N/A   Clear
5:55 PM 69.8 °F 62.6 °F 78% 30.12 in 9.0 mi NE 4.6 mph - N/A   Clear
6:15 PM 69.8 °F 62.6 °F 78% 30.13 in 10.0 mi NNE 4.6 mph - N/A   Clear
6:35 PM 69.8 °F 62.6 °F 78% 30.13 in 10.0 mi North 5.8 mph - N/A   Clear
6:55 PM 69.8 °F 64.4 °F 83% 30.13 in 10.0 mi NNE 6.9 mph - N/A   Clear
7:15 PM 68.0 °F 64.4 °F 88% 30.14 in 9.0 mi North 6.9 mph - N/A   Clear
7:35 PM 68.0 °F 64.4 °F 88% 30.15 in 10.0 mi NNE 5.8 mph - N/A   Clear
7:55 PM 66.2 °F 64.4 °F 94% 30.15 in 10.0 mi NNE 5.8 mph - N/A   Clear
8:15 PM 66.2 °F 64.4 °F 94% 30.16 in 10.0 mi NNE 5.8 mph - N/A   Clear
8:35 PM 66.2 °F 64.4 °F 94% 30.16 in 10.0 mi NNE 6.9 mph - N/A   Clear
8:55 PM 66.2 °F 64.4 °F 94% 30.17 in 10.0 mi NNE 5.8 mph - N/A   Clear
9:15 PM 66.2 °F 64.4 °F 94% 30.17 in 10.0 mi NNE 8.1 mph - N/A   Scattered Clouds
9:35 PM 66.2 °F 64.4 °F 94% 30.17 in 9.0 mi NNE 10.4 mph - N/A   Overcast
9:55 PM 66.2 °F 64.4 °F 94% 30.17 in 9.0 mi NE 6.9 mph - N/A   Overcast
10:15 PM 66.2 °F 64.4 °F 94% 30.17 in 9.0 mi NNE 8.1 mph - N/A   Overcast
10:35 PM 66.2 °F 64.4 °F 94% 30.17 in 8.0 mi NE 4.6 mph - N/A   Overcast
10:55 PM 64.4 °F 64.4 °F 100% 30.16 in 8.0 mi NNE 5.8 mph - N/A   Overcast
11:15 PM 66.2 °F 64.4 °F 94% 30.16 in 8.0 mi North 9.2 mph - N/A   Overcast
11:35 PM 64.4 °F 64.4 °F 100% 30.15 in 8.0 mi NNE 5.8 mph - N/A   Scattered Clouds
11:55 PM 64.4 °F 64.4 °F 100% 30.15 in 8.0 mi NNE 4.6 mph - N/A   Partly Cloudy